This demonstration page uses our WeatherBlox Daily Observations layout. Learn more.

Hourly Observations for January 1, 2020

Temp ( °F °C ) Dew Point ( °F °C ) Humidity (%) Winds ( mph kmh ) Pressure ( in mb ) Visibility ( mi km ) Precip ( " mm )
12:15 am 00:15 Clear 26 -3.6 19 -7.5 75 75 SW 13 20 29.91 1013 10 16.0934 0 0
12:35 am 00:35 Clear 26 -3.6 19 -7.5 75 75 SW 13 20 29.89 1012 10 16.0934 0 0
12:55 am 00:55 Clear 27 -2.8 18 -7.6 70 70 SW 12 19 29.87 1012 10 16.0934 0 0
1:15 am 01:15 Clear 27 -2.8 18 -7.8 69 69 SW 13 20 29.86 1011 10 16.0934 0 0
1:35 am 01:35 Clear 27 -2.7 18 -7.8 68 68 SW 10 17 29.84 1010 10 16.0934 0 0
1:55 am 01:55 Clear 25 -3.7 17 -8.1 72 72 SW 7 11 29.85 1011 10 16.0934 0 0
2:15 am 02:15 Clear 25 -3.7 17 -8.1 72 72 SW 9 15 29.84 1010 10 16.0934 0 0
2:35 am 02:35 Clear 26 -3.6 17 -8.1 71 71 SW 7 11 29.84 1010 10 16.0934 0 0
2:55 am 02:55 Clear 26 -3.6 17 -8.3 70 70 SW 6 9 29.83 1010 10 16.0934 0 0
3:15 am 03:15 Clear 24 -4.2 17 -8.3 73 73 SW 6 9 29.82 1010 10 16.0934 0 0
3:35 am 03:35 Clear 25 -4.1 17 -8.3 73 73 WSW 6 9 29.81 1010 10 16.0934 0 0
3:55 am 03:55 Clear 26 -3.6 17 -8.4 70 70 SW 3 6 29.8 1009 10 16.0934 0 0
4:15 am 04:15 Clear 23 -5 17 -8.6 76 76 SW 5 7 29.8 1009 10 16.0934 0 0
4:35 am 04:35 Clear 23 -5.1 17 -8.5 77 77 SW 3 6 29.78 1009 10 16.0934 0 0
4:55 am 04:55 Clear 23 -4.8 17 -8.5 76 76 SW 8 13 29.76 1008 10 16.0934 0 0
5:15 am 05:15 Clear 23 -5 17 -8.5 77 77 SSW 8 13 29.74 1007 10 16.0934 0 0
5:35 am 05:35 Clear 22 -5.4 16 -8.7 78 78 SSW 3 6 29.75 1007 10 16.0934 0 0
5:55 am 05:55 Clear 21 -6.2 16 -9.1 80 80 SW 5 7 29.74 1007 10 16.0934 0 0
6:15 am 06:15 Clear 22 -5.6 17 -8.6 80 80 SW 7 11 29.72 1006 10 16.0934 0 0
6:35 am 06:35 Clear 21 -6.2 16 -8.9 81 81 SW 3 6 29.72 1007 10 16.0934 0 0
6:55 am 06:55 Clear 20 -6.5 16 -9 83 83 SSW 5 7 29.73 1007 10 16.0934 0 0
7:15 am 07:15 Clear 20 -6.5 16 -8.9 83 83 SSW 3 6 29.73 1007 10 16.0934 0 0
7:35 am 07:35 Clear 21 -6.1 17 -8.5 83 83 Calm 29.71 1006 10 16.0934 0 0
7:55 am 07:55 Clear 21 -6 17 -8.5 83 83 Calm 29.7 1006 10 16.0934 0 0
8:15 am 08:15 Sunny 22 -5.5 17 -8.3 81 81 SSW 3 6 29.7 1006 10 16.0934 0 0
8:35 am 08:35 Sunny 22 -5.6 17 -8.5 80 80 SSW 3 6 29.69 1005 10 16.0934 0 0
8:55 am 08:55 Sunny 23 -5.2 18 -8 81 81 SW 3 6 29.68 1005 10 16.0934 0 0
9:15 am 09:15 Sunny 24 -4.2 19 -7.5 78 78 SSW 6 9 29.66 1005 10 16.0934 0 0
9:35 am 09:35 Sunny 26 -3.3 19 -7.1 75 75 SW 7 11 29.65 1004 10 16.0934 0 0
9:55 am 09:55 Sunny 26 -3.1 19 -7.1 74 74 SW 7 11 29.64 1004 10 16.0934 0 0
10:15 am 10:15 Sunny 27 -2.6 20 -6.7 74 74 SSW 6 9 29.63 1003 10 16.0934 0 0
10:35 am 10:35 Sunny 28 -2.1 21 -6.1 74 74 SW 7 11 29.61 1003 10 16.0934 0 0
10:55 am 10:55 Sunny 29 -1.9 21 -6 74 74 SSW 5 7 29.6 1002 10 16.0934 0 0
11:15 am 11:15 Sunny 30 -0.9 23 -5.1 73 73 W 8 13 29.6 1002 10 16.0934 0 0
11:35 am 11:35 Sunny 30 -1.2 23 -5 76 76 W 10 17 29.6 1003 10 16.0934 0 0
11:55 am 11:55 Sunny 32 0 22 -5.4 67 67 WSW 3 6 29.56 1001 10 16.0934 0 0
12:15 pm 12:15 Sunny 33 0.8 23 -4.8 67 67 SSW 7 11 29.54 1000 10 16.0934 0 0
12:35 pm 12:35 Sunny 36 2 23 -4.8 61 61 SW 5 7 29.5 999 10 16.0934 0 0
12:55 pm 12:55 Sunny 37 2.8 25 -3.9 62 62 SW 6 9 29.49 999 10 16.0934 0 0
1:15 pm 13:15 Sunny 37 2.8 26 -3.1 65 65 SW 5 7 29.48 998 10 16.0934 0 0
1:35 pm 13:35 Sunny 38 3.4 26 -3.4 61 61 W 7 11 29.47 998 10 16.0934 0 0
1:55 pm 13:55 Sunny 38 3.6 26 -3.2 61 61 WSW 5 7 29.47 998 10 16.0934 0 0
2:15 pm 14:15 Sunny 39 3.9 26 -3.4 59 59 WSW 8 13 29.47 998 10 16.0934 0 0
2:35 pm 14:35 Sunny 38 3.5 27 -2.8 64 64 W 10 17 29.46 998 10 16.0934 0 0
2:55 pm 14:55 Partly Cloudy 38 3.6 28 -2.3 66 66 W 10 17 29.47 998 10 16.0934 0 0
3:15 pm 15:15 Cloudy 39 4 28 -2.1 65 65 WSW 9 15 29.47 998 10 16.0934 0 0
3:35 pm 15:35 Cloudy 39 3.8 28 -2 66 66 WSW 9 15 29.47 998 10 16.0934 0 0
3:55 pm 15:55 Cloudy 38 3.5 29 -1.6 70 70 W 9 15 29.47 998 10 16.0934 0 0
4:15 pm 16:15 Mostly Cloudy 38 3.5 29 -1.5 70 70 WSW 6 9 29.47 998 10 16.0934 0 0
4:35 pm 16:35 Cloudy 38 3.6 30 -1.3 71 71 WSW 8 13 29.47 998 10 16.0934 0 0
4:55 pm 16:55 Cloudy 38 3.1 31 -0.8 76 76 WSW 6 9 29.47 998 10 16.0934 0 0
5:15 pm 17:15 Cloudy 38 3.5 31 -0.7 74 74 SW 8 13 29.47 998 10 16.0934 0 0
5:35 pm 17:35 Partly Cloudy 39 4 31 -0.5 73 73 WSW 8 13 29.46 997 10 16.0934 0 0
5:55 pm 17:55 Partly Cloudy 38 3.6 31 -0.4 75 75 WSW 7 11 29.45 997 10 16.0934 0 0
6:15 pm 18:15 Clear 41 4.9 32 -0.2 70 70 WSW 9 15 29.44 997 10 16.0934 0 0
6:35 pm 18:35 Mostly Cloudy 42 5.4 32 0 68 68 W 15 24 29.45 997 10 16.0934 0 0
6:55 pm 18:55 Cloudy 41 5 32 0.1 71 71 W 14 22 29.48 998 10 16.0934 0 0
7:15 pm 19:15 Cloudy 40 4.6 33 0.5 75 75 W 12 19 29.46 998 10 16.0934 0 0
7:35 pm 19:35 Cloudy 39 4.1 33 0.6 78 78 W 10 17 29.48 998 10 16.0934 0 0
7:55 pm 19:55 Cloudy 39 4.1 34 1 80 80 W 9 15 29.48 998 10 16.0934 0 0
8:15 pm 20:15 Cloudy 40 4.2 34 1.1 80 80 W 8 13 29.48 998 10 16.0934 0 0
8:35 pm 20:35 Cloudy 40 4.2 35 1.4 82 82 W 6 9 29.47 998 10 16.0934 0 0
8:55 pm 20:55 Cloudy 39 3.7 34 1.3 85 85 W 5 7 29.47 998 10 16.0934 0 0
9:15 pm 21:15 Cloudy 38 3.6 35 1.5 86 86 W 3 6 29.48 998 10 16.0934 0 0
9:35 pm 21:35 Cloudy 38 3.2 35 1.5 89 89 W 7 11 29.49 999 10 16.0934 0 0
9:55 pm 21:55 Cloudy 38 3.3 35 1.5 88 88 W 7 11 29.49 999 10 16.0934 0 0
10:15 pm 22:15 Mostly Cloudy 38 3.5 35 1.7 88 88 W 8 13 29.49 999 10 16.0934 0 0
10:35 pm 22:35 Partly Cloudy 37 3 35 1.5 90 90 W 8 13 29.5 999 10 16.0934 0 0
10:55 pm 22:55 Clear 37 2.6 34 1.1 90 90 W 7 11 29.5 999 10 16.0934 0 0
11:15 pm 23:15 Clear 37 2.7 34 1.1 89 89 W 8 13 29.5 999 10 16.0934 0 0
11:35 pm 23:35 Clear 37 3 33 0.8 86 86 W 9 15 29.5 999 10 16.0934 0 0
11:55 pm 23:55 Clear 37 3 33 0.8 86 86 W 10 17 29.5 999 10 16.0934 0 0

Powered by AerisWeather